Location: Kawakawa
(35.3830°S, 174.0670°E)
Time: 13:37:24
(UTC+13:00)

Explorer 7 - Pass Details

Date: 20 December 2019
Orbit: 485 x 679 km, 50.3° (Epoch: 17 January)

Event Time Altitude Azimuth Distance (km) Brightness Sun altitude
Rises 08:45:28 0° 235° (SW) 2,576 9.9 30.0°
Reaches altitude 10° 08:47:41 10° 240° (WSW) 1,693 9.0 30.5°
Maximum altitude 08:51:23 50° 316° (NW) 640 7.2 31.2°
Drops below altitude 10° 08:55:10 10° 32° (NNE) 1,726 9.8 32.0°
Sets 08:57:26 0° 37° (NE) 2,631 10.6 32.4°
